STARLINK-31730 (59555 NORAD) Tracking and Keplerian Element Data

This shows tracking and keplerian element data for the satellite.

Feedback or suggestion? Click here.




ElementValue
Catalog59555
NameSTARLINK-31730
Epoch Orbit898
Epoch Day159.95416361
Epoch Year2024
RAAN27.6844
Inclination43.0019
Eccentricity0.0001846
Argument of Perigee279.0194
Mean Anonmoly81.0454
Mean Motion15.40704338
Decay Rate4.689E-05
L11 59555U 24074X 24159.95416361 .00004689 00000+0 11944-3 0 9990
L22 59555 43.0019 27.6844 0001846 279.0194 81.0454 15.40704338 8982



Live tracking and technical data element details for STARLINK-31730 (NORAD 59555). STARLINK-31730 can be tracked NOW for your location showing map with azimuth and elevation plus other details from your city location.







IsCatalogInMostPopularTable: catalog: 59555, numindb: 11
Update: records affected: 1



GetName: 59555 STARLINK-31730

Hit Count: updated at: Fri, 14 Jun 2024 18:20:06 GMT